TimeEDT,TemperatureF,Dew PointF,Humidity,Sea Level PressureIn,VisibilityMPH,Wind Direction,Wind SpeedMPH,Gust SpeedMPH,PrecipitationIn,Events,Conditions,WindDirDegrees,DateUTC
12:14 AM,39.0,31.5,74,29.93,10.0,SSE,9.2,-,N/A,,Scattered Clouds,150,2013-03-10 05:14:00
12:34 AM,38.8,31.5,75,29.92,10.0,SSE,6.9,-,N/A,,Mostly Cloudy,150,2013-03-10 05:34:00
12:54 AM,38.8,31.5,75,29.92,10.0,SSE,6.9,-,N/A,,Mostly Cloudy,150,2013-03-10 05:54:00
1:14 AM,39.2,31.5,74,29.91,10.0,SE,4.6,-,N/A,,Overcast,140,2013-03-10 06:14:00
1:34 AM,39.4,31.6,74,29.91,10.0,SE,5.8,-,N/A,,Overcast,140,2013-03-10 06:34:00
1:54 AM,39.4,31.5,73,29.91,10.0,SSE,4.6,-,N/A,,Overcast,150,2013-03-10 06:54:00
3:14 AM,39.6,31.5,73,29.90,10.0,SE,4.6,-,N/A,,Overcast,140,2013-03-10 07:14:00
3:34 AM,39.6,31.5,73,29.89,10.0,SE,5.8,-,N/A,,Overcast,140,2013-03-10 07:34:00
3:54 AM,39.6,31.5,73,29.88,10.0,SE,4.6,-,N/A,,Overcast,140,2013-03-10 07:54:00
4:14 AM,39.7,31.5,72,29.87,10.0,SSE,4.6,-,N/A,,Overcast,160,2013-03-10 08:14:00
4:34 AM,38.8,31.5,75,29.86,10.0,SSE,3.5,-,N/A,,Overcast,150,2013-03-10 08:34:00
4:54 AM,38.8,31.5,75,29.86,10.0,SE,3.5,-,N/A,,Overcast,140,2013-03-10 08:54:00
5:14 AM,39.0,31.3,74,29.86,10.0,SSE,3.5,-,N/A,,Overcast,150,2013-03-10 09:14:00
5:34 AM,38.5,31.5,76,29.85,10.0,SSE,3.5,-,N/A,,Overcast,150,2013-03-10 09:34:00
5:54 AM,38.3,31.5,76,29.85,10.0,SSE,3.5,-,N/A,,Overcast,150,2013-03-10 09:54:00
6:14 AM,38.3,31.1,75,29.85,10.0,South,4.6,-,N/A,,Scattered Clouds,170,2013-03-10 10:14:00
6:33 AM,37.6,31.3,78,29.85,10.0,South,4.6,-,N/A,Rain,Light Rain,190,2013-03-10 10:33:00
6:54 AM,37.4,31.8,80,29.85,10.0,Calm,Calm,-,N/A,Rain,Light Rain,0,2013-03-10 10:54:00
7:14 AM,36.0,32.4,87,29.85,4.0,Calm,Calm,-,N/A,Snow,Light Snow,0,2013-03-10 11:14:00
7:34 AM,36.0,34.2,93,29.84,5.0,Calm,Calm,-,N/A,,Overcast,0,2013-03-10 11:34:00
8:14 AM,36.0,34.9,96,29.84,1.5,Calm,Calm,-,N/A,Snow,Light Snow,0,2013-03-10 12:14:00
8:34 AM,36.9,35.6,95,29.86,3.0,South,5.8,-,N/A,Rain,Light Rain,170,2013-03-10 12:34:00
8:54 AM,37.6,36.0,94,29.86,4.0,SSE,4.6,-,N/A,,Overcast,150,2013-03-10 12:54:00
9:14 AM,38.3,36.7,94,29.85,2.5,SE,4.6,-,N/A,Rain,Light Rain,140,2013-03-10 13:14:00
9:33 AM,38.7,37.2,95,29.84,3.0,Calm,Calm,-,N/A,,Overcast,0,2013-03-10 13:33:00
9:54 AM,38.1,36.5,94,29.83,2.5,SSW,5.8,-,N/A,,Overcast,200,2013-03-10 13:54:00
10:14 AM,37.6,36.5,96,29.83,0.8,SSE,3.5,-,N/A,,Overcast,150,2013-03-10 14:14:00
10:33 AM,39.2,38.3,97,29.82,2.0,SE,4.6,-,N/A,Rain,Light Rain,130,2013-03-10 14:33:00
10:54 AM,39.0,37.9,96,29.83,1.5,Calm,Calm,-,N/A,,Overcast,0,2013-03-10 14:54:00
11:14 AM,39.4,38.5,97,29.83,1.0,Calm,Calm,-,N/A,,Overcast,0,2013-03-10 15:14:00
11:33 AM,39.7,38.8,97,29.84,0.5,Calm,Calm,-,N/A,Rain,Light Rain,0,2013-03-10 15:33:00
11:54 AM,39.6,38.7,97,29.84,0.5,Calm,Calm,-,N/A,Fog,Fog,0,2013-03-10 15:54:00
12:14 PM,41.7,40.8,97,29.84,0.8,ESE,4.6,-,N/A,Rain,Light Rain,120,2013-03-10 16:14:00
12:33 PM,42.8,41.9,97,29.83,1.2,SE,5.8,-,N/A,,Overcast,140,2013-03-10 16:33:00
12:54 PM,42.1,41.2,97,29.84,2.0,South,5.8,-,N/A,,Overcast,170,2013-03-10 16:54:00
1:14 PM,43.3,42.3,96,29.84,2.5,South,4.6,-,N/A,,Light Drizzle,180,2013-03-10 17:14:00
1:33 PM,43.7,42.3,95,29.85,2.5,South,5.8,-,N/A,Rain,Rain,180,2013-03-10 17:33:00
1:54 PM,43.9,42.6,95,29.84,2.5,South,5.8,-,N/A,Rain,Rain,180,2013-03-10 17:54:00
2:14 PM,43.3,42.1,95,29.83,1.2,Calm,Calm,-,N/A,Rain,Rain,0,2013-03-10 18:14:00
2:33 PM,43.7,42.4,95,29.82,2.0,Calm,Calm,-,N/A,,Light Drizzle,0,2013-03-10 18:33:00
2:54 PM,43.7,42.4,95,29.83,2.5,Calm,Calm,-,N/A,,Overcast,0,2013-03-10 18:54:00
3:14 PM,43.5,42.3,95,29.83,2.5,Calm,Calm,-,N/A,,Overcast,0,2013-03-10 19:14:00
3:33 PM,44.2,43.0,95,29.83,2.5,SSE,4.6,-,N/A,,Overcast,150,2013-03-10 19:33:00
3:54 PM,42.4,41.4,96,29.83,1.0,South,6.9,-,N/A,,Overcast,170,2013-03-10 19:54:00
4:14 PM,43.9,42.8,96,29.81,2.0,SSE,4.6,-,N/A,Rain,Light Rain,150,2013-03-10 20:14:00
4:34 PM,43.2,42.1,96,29.83,0.8,Calm,Calm,-,N/A,,Overcast,0,2013-03-10 20:34:00
4:54 PM,43.2,42.3,97,29.83,1.0,Calm,Calm,-,N/A,,Unknown,0,2013-03-10 20:54:00
5:14 PM,42.6,41.7,97,29.78,1.2,Calm,Calm,-,N/A,,Overcast,0,2013-03-10 21:14:00
5:34 PM,42.8,41.9,97,29.80,0.2,Calm,Calm,-,N/A,Fog,Fog,0,2013-03-10 21:34:00
5:54 PM,43.5,42.6,97,29.80,0.5,SSE,4.6,-,N/A,Fog,Fog,150,2013-03-10 21:54:00
6:14 PM,43.7,42.8,97,29.81,1.2,SSE,4.6,-,N/A,,Overcast,150,2013-03-10 22:14:00
6:34 PM,43.7,42.8,97,29.79,0.5,Calm,Calm,-,N/A,Fog,Fog,0,2013-03-10 22:34:00
6:54 PM,42.8,41.9,97,29.78,1.8,Calm,Calm,-,N/A,,Overcast,0,2013-03-10 22:54:00
7:14 PM,43.2,42.3,97,29.77,1.8,SE,3.5,-,N/A,,Light Drizzle,130,2013-03-10 23:14:00
7:34 PM,41.5,40.8,97,29.80,0.8,West,8.1,-,N/A,Rain,Light Rain,260,2013-03-10 23:34:00
7:54 PM,41.0,40.3,97,29.79,0.5,NNW,5.8,-,N/A,,Overcast,330,2013-03-10 23:54:00
8:14 PM,42.1,41.2,97,29.79,0.5,Calm,Calm,-,N/A,Rain,Light Rain,0,2013-03-11 00:14:00
8:34 PM,40.8,39.9,97,29.78,0.2,Calm,Calm,-,N/A,Rain,Light Rain,0,2013-03-11 00:34:00
8:54 PM,39.2,38.5,97,29.79,0.2,SW,3.5,-,N/A,Rain,Light Rain,230,2013-03-11 00:54:00
9:13 PM,39.2,38.5,97,29.77,0.2,ENE,3.5,-,N/A,,Overcast,70,2013-03-11 01:13:00
9:34 PM,40.5,39.7,97,29.76,0.5,Calm,Calm,-,N/A,,Overcast,0,2013-03-11 01:34:00
10:14 PM,42.4,41.5,97,29.75,3.0,SSE,3.5,-,N/A,Rain,Light Rain,150,2013-03-11 02:14:00
10:34 PM,43.3,42.4,97,29.74,3.0,Calm,Calm,-,N/A,,Overcast,0,2013-03-11 02:34:00
10:54 PM,43.5,42.6,97,29.74,5.0,SE,3.5,-,N/A,Rain,Light Rain,130,2013-03-11 02:54:00
11:13 PM,43.7,42.6,96,29.72,5.0,ESE,5.8,-,N/A,,Overcast,120,2013-03-11 03:13:00
11:34 PM,43.3,42.1,95,29.70,5.0,East,4.6,-,N/A,Rain,Light Rain,90,2013-03-11 03:34:00
11:54 PM,43.2,41.9,95,29.70,5.0,Calm,Calm,-,N/A,,Overcast,0,2013-03-11 03:54:00
12:14 AM,42.1,41.0,96,29.69,2.5,Calm,Calm,-,N/A,Rain,Light Rain,0,2013-03-11 04:14:00
12:34 AM,40.6,39.7,97,29.69,0.5,Calm,Calm,-,N/A,Fog,Fog,0,2013-03-11 04:34:00
12:53 AM,42.1,41.2,97,29.69,3.0,Calm,Calm,-,N/A,,Overcast,0,2013-03-11 04:53:00